Location: Invercargill
(46.4000°S, 168.3500°E)
Time: 18:45:18
(UTC+12:00)

ATLAS CENTAUR R/B - Pass Details

Date: 14 May 2021
Orbit: 472 x 671 km, 64.6° (Epoch: 13 June)

Event Time Altitude Azimuth Distance (km) Brightness Sun altitude
Rises 20:43:36 0° 220° (SW) 2,851 5.6 -34.1°
Reaches altitude 10° 20:45:57 10° 225° (SW) 1,907 4.6 -34.5°
Enters shadow 20:46:38 14° 227° (SW) 1,646 4.2 -34.6°
